[[{"header":{"parameterUnit":"m.s-1","parameterCategory":2,"la1":30.2991,"la2":30.254,"lo1":-89.0895,"lo2":-89.0444,"dy":0.0017,"dx":0.0017,"nx":28,"ny":28,"refTime":"2024-06-23T21:00:00:Z","depth":"0","parameterNumber":2,"parameterNumberName":"U-component_of_CURRENTS"},"data":[0,0,0,0,0,0,0,0,0,0,0,0,0,0,0,0,0,0,0,0,0,0,0,0,0,0,0,0,0,0,0,0,0,0,0,0,0,0,0,0,0,0,0,0,0,0,0,0,0,0,0,0,0,0,0,0,0,0,0.3214,0.3215,0,0.3284,0.3284,0.3285,0.3289,0.3288,0.3288,0.3288,0.3275,0.3275,0.3275,0,0,0,0,0,0,0,0,0,0,0,0,0,0.3053,0.3056,0.3214,0.3215,0.3216,0.3284,0.3284,0.3285,0.3289,0.3288,0.3288,0.3288,0.3275,0.3275,0.3275,0,0,0,0,0,0,0,0,0,0,0,0,0,0.3118,0.3057,0.3213,0.323,0.3232,0.3284,0.3284,0.3285,0.3289,0.3288,0.3288,0.3287,0.3275,0.3275,0.3275,0.3286,0,0,0.3275,0.3275,0,0,0,0,0,0,0,0,0.3115,0.3124,0.3226,0.3229,0.3232,0.3281,0.3224,0.3283,0.3289,0.3262,0.3288,0.3287,0.3273,0.3273,0.3282,0.3285,0.3285,0.3275,0.3275,0.3275,0.3275,0,0,0,0,0,0,0,0.311,0.3121,0.3236,0.3228,0.3231,0.3224,0.3233,0.3235,0.3264,0.3265,0.3266,0.3282,0.3273,0.3282,0.3281,0.3285,0.3275,0.3275,0.3275,0.3275,0.33,0.3301,0,0,0,0,0,0,0.3114,0.3117,0.3234,0.3239,0.3176,0.3228,0.3237,0.3262,0.3266,0.3269,0.3283,0.3282,0.3282,0.3281,0.3281,0.3304,0.3275,0.3275,0.3275,0.33,0.33,0.3301,0,0,0,0,0,0,0.3111,0.3124,0.3232,0.3182,0.3196,0.3232,0.326,0.3264,0.3277,0.3282,0.3281,0.3292,0.3282,0.3281,0.3289,0.3303,0.3275,0.3275,0.3299,0.33,0.3301,0.3344,0,0,0,0,0,0,0.3106,0.3123,0.3137,0.3183,0.3199,0.3268,0.3261,0.3266,0.329,0.329,0.329,0.3288,0.3281,0.329,0.3289,0.3303,0.3275,0.3298,0.3299,0.33,0.3342,0.3347,0.3351,0,0,0,0,0,0.31,0.3125,0.3137,0.3152,0.322,0.327,0.3277,0.3296,0.3291,0.3303,0.3302,0.3288,0.3297,0.329,0.329,0.3304,0.3297,0.3299,0.33,0.334,0.3346,0.3351,0,0,0,0,0,0,0.306,0.313,0.3144,0.3188,0.3229,0.3272,0.3292,0.3301,0.3311,0.3307,0.33,0.3299,0.3318,0.3302,0.3294,0.3314,0.3294,0.3296,0.3324,0.333,0.3334,0.3471,0.3275,0,0,0,0,0,0.3061,0.31,0.3158,0.3193,0.3218,0.3254,0.3275,0.329,0.331,0.3315,0.3318,0.3316,0.3325,0.3319,0.3329,0.3333,0.3475,0.334,0.3344,0.3348,0.3459,0.3713,0.3755,0.3306,0.3306,0.3306,0,0,0.3054,0.31,0.3119,0.3187,0.3221,0.3265,0.3264,0.3304,0.3336,0.3311,0.3344,0.3341,0.3334,0.335,0.3354,0.3333,0.353,0.335,0.3353,0.3465,0.372,0.3766,0.3806,0.3307,0.3307,0.3307,0,0,0.3077,0.3105,0.3153,0.3188,0.3249,0.3272,0.3286,0.3334,0.3351,0.3375,0.3376,0.3415,0.3381,0.3425,0.3427,0.3469,0.3558,0.3414,0.3536,0.3777,0.382,0.3859,0.4027,0.4082,0.34,0.34,0.34,0,0.3072,0.3152,0.317,0.3225,0.3276,0.3278,0.3347,0.3352,0.3392,0.3452,0.3388,0.3484,0.3447,0.3554,0.3547,0.3491,0.3624,0.3507,0.3795,0.3837,0.3877,0.4041,0.41,0.3403,0.3402,0.3402,0.3402,0,0.3136,0.32,0.3232,0.3309,0.3343,0.3405,0.343,0.3464,0.347,0.351,0.3619,0.3607,0.37,0.3638,0.3594,0.3825,0.3823,0.3786,0.38,0.3927,0.4086,0.4149,0.3406,0.3405,0.3404,0.3404,0,0,0.3188,0.3268,0.3291,0.3366,0.3411,0.3471,0.3508,0.3615,0.3722,0.3714,0.3897,0.3871,0.3924,0.3942,0.3904,0.4065,0.4379,0.4042,0.4053,0.4244,0.4904,0.477,0.4824,0.4404,0.4417,0.4427,0.4879,0,0.327,0.3401,0.3406,0.3539,0.3634,0.3642,0.3704,0.3776,0.3832,0.3986,0.4022,0.4154,0.4012,0.4086,0.423,0.4362,0.4558,0.4261,0.4728,0.4743,0.4641,0.4898,0.4651,0.5026,0.494,0.495,0.4957,0,0.3391,0.347,0.3616,0.3749,0.3791,0.3845,0.4028,0.408,0.4237,0.4294,0.4434,0.4476,0.4682,0.4558,0.4933,0.4753,0.4884,0.4964,0.4983,0.4924,0.473,0.4898,0.5142,0.4941,0.5053,0.5046,0.5039,0,0.3534,0.3649,0.3788,0.3826,0.3935,0.402,0.4081,0.4213,0.4317,0.455,0.4682,0.489,0.5043,0.5257,0.5328,0.521,0.5757,0.5609,0.5629,0.5616,0.5543,0.5503,0.5701,0.6009,0.6008,0.6007,0.6006,0,0.3691,0.3818,0.3873,0.3965,0.4142,0.417,0.438,0.4459,0.4635,0.4779,0.4888,0.5057,0.5248,0.5485,0.555,0.578,0.5955,0.5786,0.5791,0.5529,0.5485,0.541,0.5274,0.6024,0.602,0.6017,0.6014,0,0.3878,0.3907,0.4078,0.4189,0.4229,0.437,0.4512,0.4635,0.4804,0.5013,0.5106,0.5325,0.5591,0.5742,0.6098,0.6071,0.6121,0.6328,0.5955,0.5908,0.5655,0.5528,0.5705,0.5553,0.648,0.6481,0.6481,0,0.3995,0.41,0.4233,0.4287,0.4346,0.451,0.4583,0.4724,0.4818,0.5113,0.5206,0.5547,0.567,0.6126,0.6207,0.6417,0.6178,0.6312,0.6047,0.5735,0.5602,0.5361,0.52,0.5947,0.5942,0.5939,0.5936,0,0.4182,0.422,0.4301,0.4403,0.4487,0.4589,0.4695,0.4787,0.4915,0.5084,0.5253,0.5407,0.5795,0.5876,0.6162,0.623,0.5961,0.6246,0.609,0.5396,0.5001,0.4816,0.5488,0.5907,0.591,0.5912,0.5913,0.5915,0.4261,0.4321,0.4352,0.445,0.4516,0.4537,0.4563,0.4642,0.4748,0.486,0.512,0.5285,0.5525,0.5857,0.5891,0.5794,0.5788,0.5637,0.5576,0.5413,0.5073,0.5639,0.5923,0.5925,0.5928,0.593,0.5932,0,0.4241,0.4257,0.4358,0.4381,0.4383,0.4455,0.4496,0.4447,0.4433,0.466,0.4781,0.5029,0.5134,0.5292,0.5326,0.5165,0.4946,0.5024,0.4644,0.4569,0.5264,0.5035,0.4934,0.4934,0.4934,0.4934,0.4934,0.4935,0.4192,0.4201,0.4228,0.4174,0.4192,0.4085,0.4054,0.4012,0.4099,0.4167,0.4312,0.4525,0.4799,0.4895,0.4742,0.4624,0.4257,0.4092,0.4101,0.4543,0.4592,0.464,0.4396,0.4163,0.4162,0.3228,0.322,0.3214]},{"header":{"parameterUnit":"m.s-1","parameterCategory":2,"la1":30.2991,"la2":30.254,"lo1":-89.0895,"lo2":-89.0444,"dy":0.0017,"dx":0.0017,"nx":28,"ny":28,"refTime":"2024-06-23T21:00:00:Z","depth":"0","parameterNumber":3,"parameterNumberName":"V-component_of_CURRENTS"},"data":[0,0,0,0,0,0,0,0,0,0,0,0,0,0,0,0,0,0,0,0,0,0,0,0,0,0,0,0,0,0,0,0,0,0,0,0,0,0,0,0,0,0,0,0,0,0,0,0,0,0,0,0,0,0,0,0,0,0,-0.0589,-0.059,0,-0.0687,-0.0689,-0.069,-0.0743,-0.0742,-0.0742,-0.0742,-0.0839,-0.0842,-0.0845,0,0,0,0,0,0,0,0,0,0,0,0,0,-0.0545,-0.0545,-0.0589,-0.059,-0.0591,-0.0687,-0.0689,-0.069,-0.0743,-0.0742,-0.0742,-0.0742,-0.0839,-0.0842,-0.0845,0,0,0,0,0,0,0,0,0,0,0,0,0,-0.0597,-0.0545,-0.0589,-0.0628,-0.0632,-0.0687,-0.0689,-0.0691,-0.0743,-0.0742,-0.0742,-0.0742,-0.0838,-0.0841,-0.0845,-0.0871,0,0,-0.0857,-0.0859,0,0,0,0,0,0,0,0,-0.0594,-0.0599,-0.0621,-0.0625,-0.063,-0.0701,-0.0709,-0.075,-0.0743,-0.0702,-0.0742,-0.0742,-0.0792,-0.08,-0.0821,-0.0875,-0.0879,-0.0858,-0.086,-0.0862,-0.0863,0,0,0,0,0,0,0,-0.059,-0.0596,-0.063,-0.0622,-0.0628,-0.0674,-0.068,-0.0718,-0.0748,-0.0706,-0.0709,-0.0718,-0.0795,-0.0817,-0.0823,-0.0881,-0.0858,-0.0861,-0.0863,-0.0865,-0.0964,-0.0965,0,0,0,0,0,0,-0.057,-0.0592,-0.0627,-0.0633,-0.061,-0.0674,-0.0682,-0.068,-0.0747,-0.0757,-0.0718,-0.072,-0.081,-0.0819,-0.0827,-0.0813,-0.0862,-0.0865,-0.0868,-0.0964,-0.0964,-0.0965,0,0,0,0,0,0,-0.0568,-0.0572,-0.0623,-0.0614,-0.0623,-0.0674,-0.0672,-0.0682,-0.0702,-0.0756,-0.0766,-0.0727,-0.081,-0.0821,-0.0855,-0.0819,-0.0867,-0.0871,-0.0964,-0.0964,-0.0965,-0.0816,0,0,0,0,0,0,-0.0566,-0.057,-0.0561,-0.0612,-0.0623,-0.0636,-0.0672,-0.0684,-0.0706,-0.071,-0.0768,-0.0777,-0.0811,-0.0848,-0.0858,-0.0825,-0.0874,-0.0963,-0.0964,-0.0964,-0.082,-0.0811,-0.0803,0,0,0,0,0,-0.0564,-0.0537,-0.0559,-0.0564,-0.0608,-0.0635,-0.0644,-0.0683,-0.0706,-0.0704,-0.075,-0.0775,-0.0859,-0.0852,-0.0863,-0.083,-0.0963,-0.0964,-0.0964,-0.0824,-0.0813,-0.0803,0,0,0,0,0,0,-0.0498,-0.0541,-0.0567,-0.055,-0.0586,-0.0643,-0.064,-0.0679,-0.0716,-0.072,-0.0778,-0.079,-0.0806,-0.0853,-0.0843,-0.0867,-0.0916,-0.0919,-0.0805,-0.0795,-0.0787,-0.0684,-0.0877,0,0,0,0,0,-0.0483,-0.0479,-0.0532,-0.0516,-0.0531,-0.059,-0.0607,-0.0638,-0.0679,-0.0696,-0.0737,-0.0787,-0.082,-0.0834,-0.0876,-0.0887,-0.0844,-0.0879,-0.087,-0.0862,-0.0791,-0.0691,-0.0663,-0.0967,-0.0967,-0.0967,0,0,-0.0452,-0.0474,-0.0471,-0.0503,-0.0533,-0.0532,-0.0599,-0.0614,-0.0608,-0.07,-0.07,-0.0758,-0.0821,-0.0829,-0.084,-0.0858,-0.0765,-0.0863,-0.0855,-0.0787,-0.0688,-0.0657,-0.063,-0.0967,-0.0967,-0.0967,0,0,-0.0378,-0.0408,-0.0381,-0.0407,-0.0447,-0.0485,-0.0486,-0.0544,-0.0562,-0.0584,-0.0644,-0.0665,-0.0738,-0.0749,-0.0771,-0.0743,-0.0726,-0.0786,-0.0644,-0.0549,-0.052,-0.0494,-0.0423,-0.0392,-0.0774,-0.0774,-0.0774,0,-0.0335,-0.0303,-0.0376,-0.0358,-0.0349,-0.0455,-0.0412,-0.0459,-0.0518,-0.0489,-0.0563,-0.0593,-0.068,-0.0626,-0.064,-0.071,-0.0659,-0.0671,-0.0526,-0.05,-0.0475,-0.0409,-0.0376,-0.0767,-0.0768,-0.0769,-0.0769,0,-0.0247,-0.0222,-0.0204,-0.0212,-0.0224,-0.0203,-0.0271,-0.0281,-0.0326,-0.0347,-0.0315,-0.0416,-0.0401,-0.0473,-0.0557,-0.0439,-0.0461,-0.0524,-0.0527,-0.0433,-0.0373,-0.0341,-0.0757,-0.0759,-0.0762,-0.0763,0,0,-0.012,-0.0134,-0.0121,-0.0075,-0.0133,-0.0111,-0.011,-0.0086,-0.001,-0.01,0.0033,-0.0095,-0.0115,-0.0141,-0.0238,-0.0199,-0.0052,-0.0283,-0.0282,-0.0165,0.0173,0.0056,0.0078,-0.0072,-0.0065,-0.006,0.0141,0,-0.0008,0.0084,0.0033,0.0139,0.0195,0.0118,0.0157,0.0154,0.0139,0.0225,0.015,0.0206,0.0,0.0031,0.0041,-0.0015,0.0043,-0.0099,0.0027,0.0031,-0.0044,0.0115,0.0043,0.0209,0.0172,0.0177,0.0181,0,0.0129,0.0173,0.0299,0.0378,0.0399,0.044,0.0546,0.0562,0.0607,0.0611,0.065,0.0592,0.0629,0.044,0.047,0.0397,0.032,0.0253,0.0259,0.0141,-0.0025,0.0108,0.0267,-0.0032,0.0229,0.0226,0.0222,0,0.0323,0.0388,0.0516,0.0532,0.0572,0.0647,0.0677,0.0716,0.0794,0.0895,0.0997,0.0999,0.1057,0.0978,0.0757,0.0669,0.0795,0.066,0.0496,0.0485,0.0448,0.0422,0.0385,0.0744,0.0744,0.0743,0.0743,0,0.0503,0.0613,0.0629,0.0706,0.0881,0.0851,0.105,0.1066,0.1173,0.1335,0.124,0.1386,0.1201,0.119,0.0966,0.0841,0.0973,0.0602,0.0565,0.0484,0.046,0.021,0.0062,0.075,0.0749,0.0747,0.0746,0,0.0707,0.0716,0.0866,0.0941,0.0982,0.1115,0.1248,0.1383,0.1461,0.1684,0.1741,0.1763,0.1757,0.152,0.1414,0.114,0.084,0.0905,0.0795,0.074,0.0269,0.0131,0.0143,0.0035,0.0826,0.0825,0.0824,0,0.0819,0.0918,0.1038,0.1121,0.1165,0.1332,0.1443,0.1526,0.1661,0.1907,0.204,0.2117,0.2167,0.1947,0.1501,0.118,0.0882,0.0865,0.0659,0.0308,0.013,0.0014,-0.0087,0.0668,0.0666,0.0664,0.0663,0,0.1006,0.1046,0.114,0.1309,0.1445,0.1605,0.1771,0.1924,0.2059,0.2262,0.2512,0.2599,0.2375,0.2038,0.1538,0.1241,0.0642,0.0815,0.0526,0.0097,-0.009,-0.0237,0.0437,0.0647,0.0648,0.065,0.065,0.0651,0.1119,0.1211,0.1317,0.1482,0.1635,0.1836,0.1998,0.2183,0.2446,0.2736,0.2816,0.2987,0.2452,0.1777,0.1356,0.0484,0.0548,0.0189,0.0089,0.003,-0.0181,0.0432,0.0521,0.0522,0.0523,0.0524,0.0524,0,0.1215,0.1308,0.147,0.1657,0.1832,0.1898,0.2172,0.2339,0.2645,0.2922,0.3131,0.2958,0.2278,0.1557,0.0414,-0.0162,-0.0367,-0.0466,-0.0642,-0.0682,-0.0059,-0.0187,-0.0337,-0.0337,-0.0337,-0.0336,-0.0336,-0.0336,0.1268,0.141,0.1487,0.1767,0.1913,0.216,0.2321,0.2584,0.2811,0.3109,0.3212,0.3258,0.2634,0.0744,-0.0591,-0.0879,-0.1214,-0.1294,-0.1418,-0.1059,-0.1007,-0.0958,-0.1116,-0.1458,-0.146,-0.2031,-0.2037,-0.2041]}],[{"header":{"parameterUnit":"m.s-1","parameterCategory":2,"la1":30.2991,"la2":30.254,"lo1":-89.0895,"lo2":-89.0444,"dy":0.0017,"dx":0.0017,"nx":28,"ny":28,"refTime":"2024-06-23T21:00:00:Z","depth":"2","parameterNumber":2,"parameterNumberName":"U-component_of_CURRENTS"},"data":[0,0,0,0,0,0,0,0,0,0,0,0,0,0,0,0,0,0,0,0,0,0,0,0,0,0,0,0,0,0,0,0,0,0,0,0,0,0,0,0,0,0,0,0,0,0,0,0,0,0,0,0,0,0,0,0,0,0,0.3043,0.3043,0,0.3047,0.3047,0.3046,0.3053,0.3054,0.3054,0.3054,0.3242,0.3246,0.3251,0,0,0,0,0,0,0,0,0,0,0,0,0,0.3114,0.3112,0.3043,0.3043,0.3043,0.3047,0.3046,0.3046,0.3053,0.3054,0.3054,0.3054,0.324,0.3246,0.3252,0,0,0,0,0,0,0,0,0,0,0,0,0,0.3095,0.3112,0.3043,0.3049,0.305,0.3047,0.3046,0.3046,0.3053,0.3054,0.3054,0.3055,0.3238,0.3245,0.3252,0.3286,0,0,0.3274,0.3277,0,0,0,0,0,0,0,0,0.3096,0.3092,0.3048,0.3048,0.3049,0.3052,0.314,0.3136,0.3053,0.305,0.3054,0.3055,0.3197,0.3207,0.3201,0.3295,0.3303,0.3274,0.3279,0.3282,0.3284,0,0,0,0,0,0,0,0.3097,0.3093,0.3042,0.3048,0.3049,0.3076,0.3073,0.3139,0.3122,0.305,0.3051,0.3055,0.3198,0.3194,0.3206,0.3306,0.3274,0.328,0.3285,0.3288,0.3449,0.3449,0,0,0,0,0,0,0.3096,0.3093,0.3042,0.3043,0.3077,0.3074,0.3071,0.3049,0.3117,0.3127,0.3054,0.3055,0.3182,0.3198,0.3213,0.3368,0.3282,0.3288,0.3292,0.3449,0.3449,0.3449,0,0,0,0,0,0,0.3097,0.309,0.3042,0.3072,0.3068,0.3072,0.3048,0.3049,0.3074,0.3119,0.3132,0.3082,0.3183,0.3203,0.3266,0.3372,0.3291,0.3298,0.3449,0.3449,0.3449,0.3609,0,0,0,0,0,0,0.3099,0.309,0.3087,0.307,0.3066,0.3059,0.3048,0.3048,0.3074,0.3076,0.3147,0.3162,0.3185,0.3255,0.3273,0.338,0.3303,0.3448,0.3449,0.3449,0.3604,0.3615,0.3624,0,0,0,0,0,0.3101,0.3072,0.3086,0.3081,0.3056,0.3061,0.3061,0.3066,0.3076,0.309,0.3118,0.3162,0.3269,0.3261,0.3282,0.3394,0.3448,0.3449,0.3449,0.36,0.3613,0.3624,0,0,0,0,0,0,0.3056,0.307,0.3085,0.305,0.3073,0.3063,0.3074,0.3085,0.3115,0.3126,0.3167,0.3184,0.328,0.3284,0.3274,0.3424,0.3366,0.337,0.3473,0.3486,0.3496,0.3498,0.3309,0,0,0,0,0,0.3058,0.3066,0.3077,0.3053,0.3073,0.3087,0.3096,0.3103,0.3121,0.3135,0.3199,0.3243,0.329,0.3344,0.3378,0.3475,0.3481,0.3548,0.3558,0.3568,0.3573,0.3671,0.3694,0.3449,0.3449,0.3449,0,0,0.3038,0.3042,0.3047,0.3053,0.3071,0.3124,0.3093,0.3112,0.3176,0.3157,0.3275,0.329,0.3312,0.3407,0.3454,0.3438,0.3631,0.3568,0.3577,0.3577,0.3674,0.3699,0.3721,0.3449,0.3449,0.3449,0,0,0.3032,0.301,0.3053,0.3087,0.313,0.314,0.3161,0.3199,0.3239,0.3322,0.3325,0.3387,0.348,0.3524,0.355,0.3632,0.367,0.3651,0.3745,0.3842,0.3865,0.3885,0.3903,0.3924,0.3675,0.3676,0.3676,0,0.3055,0.3053,0.3062,0.3126,0.3154,0.3166,0.3225,0.3273,0.3335,0.3383,0.3378,0.3494,0.354,0.3643,0.3672,0.3674,0.3694,0.3716,0.3864,0.3884,0.3902,0.3916,0.3938,0.3683,0.3682,0.3682,0.3681,0,0.3079,0.3115,0.3134,0.3233,0.3265,0.3296,0.3368,0.3438,0.3486,0.3535,0.3643,0.3668,0.3735,0.3773,0.3763,0.3912,0.3871,0.3863,0.3855,0.3939,0.3945,0.3964,0.3694,0.3692,0.3689,0.3687,0,0,0.3078,0.3157,0.3177,0.3229,0.3316,0.3335,0.3464,0.3559,0.3642,0.3726,0.3836,0.3917,0.392,0.3942,0.3949,0.4041,0.4198,0.4023,0.4024,0.4075,0.437,0.4258,0.4266,0.4239,0.4244,0.4248,0.4317,0,0.3128,0.3228,0.3261,0.3366,0.3414,0.3479,0.3583,0.3677,0.3759,0.3882,0.3935,0.4023,0.3991,0.4026,0.4121,0.4183,0.4258,0.4175,0.4247,0.4247,0.4171,0.429,0.3973,0.4003,0.4335,0.4338,0.4341,0,0.3171,0.321,0.3317,0.3411,0.3444,0.3525,0.3653,0.3755,0.3924,0.3991,0.4089,0.4122,0.426,0.4213,0.4374,0.4328,0.4359,0.4389,0.4393,0.4248,0.4173,0.3971,0.4024,0.4372,0.437,0.4367,0.4365,0,0.3127,0.326,0.3326,0.3365,0.3483,0.356,0.364,0.3795,0.3875,0.4072,0.4154,0.4274,0.4368,0.444,0.4512,0.4466,0.4678,0.4617,0.4521,0.451,0.4229,0.4186,0.4725,0.4725,0.4724,0.4724,0.4724,0,0.314,0.3199,0.332,0.3345,0.3419,0.3539,0.3649,0.3764,0.3933,0.4035,0.4203,0.4275,0.4445,0.4568,0.4582,0.4628,0.4738,0.4556,0.4549,0.4266,0.4228,0.4531,0.4507,0.4727,0.4726,0.4726,0.4725,0,0.3088,0.3177,0.3234,0.3353,0.3399,0.3456,0.3612,0.3691,0.3895,0.4046,0.4112,0.4338,0.4504,0.4634,0.4779,0.4721,0.4763,0.4739,0.4363,0.431,0.449,0.4474,0.4616,0.4613,0.4611,0.4609,0.4607,0,0.3103,0.313,0.3199,0.3247,0.331,0.3412,0.3474,0.3636,0.3727,0.403,0.4091,0.4338,0.444,0.4633,0.4634,0.4667,0.4748,0.434,0.4189,0.4516,0.4494,0.4481,0.4468,0.386,0.3853,0.3847,0.3842,0,0.3107,0.3116,0.3134,0.3168,0.3235,0.3314,0.3441,0.3471,0.3689,0.3814,0.4042,0.4161,0.438,0.4288,0.435,0.4295,0.4313,0.4209,0.4717,0.3938,0.3811,0.3786,0.3797,0.3786,0.3792,0.3796,0.3799,0.3801,0.311,0.3097,0.3104,0.311,0.3172,0.3247,0.3275,0.3378,0.3455,0.3592,0.3798,0.3864,0.3956,0.3879,0.3799,0.3773,0.4023,0.3822,0.3838,0.3862,0.3765,0.3641,0.3561,0.3565,0.3569,0.3572,0.3574,0,0.3092,0.3059,0.3083,0.3072,0.3058,0.317,0.3262,0.3215,0.3207,0.331,0.3423,0.3196,0.3147,0.3273,0.3157,0.3154,0.3098,0.3016,0.2921,0.2981,0.3033,0.2889,0.2455,0.2451,0.2447,0.2444,0,0,0.308,0.3045,0.2998,0.2947,0.298,0.3019,0.3058,0.2963,0.2966,0.2778,0.276,0.2955,0.3148,0.2732,0.2709,0.2571,0.2736,0.247,0.3379,0.3326,0.3372,0.3525,0.3375,0,0,0,0,0]},{"header":{"parameterUnit":"m.s-1","parameterCategory":2,"la1":30.2991,"la2":30.254,"lo1":-89.0895,"lo2":-89.0444,"dy":0.0017,"dx":0.0017,"nx":28,"ny":28,"refTime":"2024-06-23T21:00:00:Z","depth":"2","parameterNumber":3,"parameterNumberName":"V-component_of_CURRENTS"},"data":[0,0,0,0,0,0,0,0,0,0,0,0,0,0,0,0,0,0,0,0,0,0,0,0,0,0,0,0,0,0,0,0,0,0,0,0,0,0,0,0,0,0,0,0,0,0,0,0,0,0,0,0,0,0,0,0,0,0,0.0092,0.0092,0,0.0024,0.0023,0.0022,-0.0054,-0.0054,-0.0055,-0.0055,-0.0226,-0.023,-0.0234,0,0,0,0,0,0,0,0,0,0,0,0,0,-0.0049,-0.0046,0.0092,0.0092,0.0092,0.0024,0.0023,0.0021,-0.0054,-0.0054,-0.0055,-0.0055,-0.0224,-0.0229,-0.0234,0,0,0,0,0,0,0,0,0,0,0,0,0,-0.0045,-0.0044,0.0092,0.0051,0.0047,0.0025,0.0023,0.0021,-0.0053,-0.0054,-0.0055,-0.0056,-0.0223,-0.0229,-0.0235,-0.0257,0,0,-0.0253,-0.0256,0,0,0,0,0,0,0,0,-0.0045,-0.004,0.0057,0.0054,0.0049,-0.0001,-0.0089,-0.0075,-0.0053,-0.0022,-0.0055,-0.0056,-0.0156,-0.0167,-0.0186,-0.0265,-0.0272,-0.0254,-0.0258,-0.026,-0.0262,0,0,0,0,0,0,0,-0.0045,-0.0039,0.0059,0.0057,0.0052,-0.0035,-0.0034,-0.0088,-0.009,-0.0025,-0.0029,-0.0026,-0.0159,-0.018,-0.0191,-0.0275,-0.0254,-0.0259,-0.0263,-0.0265,-0.035,-0.0348,0,0,0,0,0,0,-0.0011,-0.0037,0.0061,0.0057,0.0006,-0.003,-0.003,0.001,-0.0088,-0.0101,-0.0025,-0.0029,-0.0169,-0.0183,-0.0197,-0.0295,-0.026,-0.0266,-0.0269,-0.0351,-0.0349,-0.0348,0,0,0,0,0,0,-0.0013,0.0,0.0064,0.001,0.0013,-0.0024,0.0019,0.001,-0.0021,-0.0086,-0.0102,-0.0046,-0.017,-0.0188,-0.0216,-0.0299,-0.0269,-0.0274,-0.0353,-0.0351,-0.0349,-0.0448,0,0,0,0,0,0,-0.0016,0.0001,0.0019,0.0015,0.0018,0.0066,0.002,0.0009,-0.0014,-0.002,-0.0109,-0.0125,-0.0172,-0.0206,-0.0221,-0.0307,-0.0279,-0.0355,-0.0352,-0.0349,-0.0447,-0.045,-0.0452,0,0,0,0,0,-0.0021,0.0034,0.0022,0.0032,0.0054,0.0068,0.0061,0.0024,-0.0014,-0.0012,-0.0056,-0.0123,-0.0201,-0.0209,-0.0228,-0.0318,-0.0356,-0.0353,-0.0349,-0.0445,-0.0449,-0.0452,0,0,0,0,0,0,0.0017,0.0032,0.0018,0.0084,0.0077,0.0058,0.0055,0.0023,-0.0014,-0.0028,-0.0102,-0.0119,-0.0166,-0.0195,-0.0202,-0.0317,-0.0291,-0.0292,-0.0358,-0.0362,-0.0364,-0.0382,-0.0284,0,0,0,0,0,0.0029,0.0047,0.0061,0.0105,0.0109,0.0073,0.0064,0.0044,0.0021,0.0001,-0.0071,-0.0126,-0.0166,-0.0223,-0.0241,-0.0323,-0.0297,-0.0383,-0.0386,-0.0389,-0.0405,-0.0346,-0.0346,-0.0337,-0.0337,-0.0337,0,0,0.004,0.0063,0.0064,0.0106,0.0092,0.0096,0.0064,0.0069,0.0031,-0.0012,-0.0095,-0.0123,-0.0169,-0.0241,-0.0272,-0.0292,-0.0381,-0.0385,-0.0389,-0.0403,-0.0343,-0.0344,-0.0345,-0.0335,-0.0336,-0.0336,0,0,0.0067,0.0111,0.0111,0.0122,0.0124,0.0114,0.0117,0.0086,0.0032,-0.0011,-0.006,-0.0123,-0.0198,-0.0276,-0.0315,-0.0338,-0.0361,-0.0355,-0.0452,-0.0395,-0.0397,-0.0397,-0.0399,-0.0399,-0.0404,-0.0404,-0.0404,0,0.0044,0.011,0.0114,0.0131,0.0134,0.0124,0.0126,0.0082,0.0029,-0.0033,-0.0031,-0.0164,-0.0219,-0.0343,-0.0369,-0.0361,-0.033,-0.0457,-0.0404,-0.0404,-0.0403,-0.0404,-0.0403,-0.0409,-0.0408,-0.0408,-0.0407,0,0.0095,0.0119,0.0138,0.0143,0.0142,0.0168,0.0127,0.0081,0.0024,-0.0042,-0.015,-0.0213,-0.0299,-0.0351,-0.0388,-0.046,-0.044,-0.0383,-0.0412,-0.0412,-0.0411,-0.0408,-0.0415,-0.0413,-0.0412,-0.0411,0,0,0.0072,0.014,0.0137,0.0139,0.016,0.0166,0.0107,0.0042,-0.0005,-0.0111,-0.0196,-0.0336,-0.0388,-0.0431,-0.0505,-0.053,-0.0535,-0.0489,-0.0484,-0.0523,-0.0442,-0.0496,-0.0498,-0.0459,-0.0459,-0.0458,-0.0458,0,0.008,0.0121,0.0148,0.0155,0.0174,0.0152,0.0106,0.0034,-0.0026,-0.0103,-0.0249,-0.0312,-0.0415,-0.0454,-0.0505,-0.0458,-0.0525,-0.0543,-0.0409,-0.0407,-0.0479,-0.0495,-0.0446,-0.0446,-0.0455,-0.0455,-0.0454,0,0.0093,0.0136,0.0153,0.0165,0.0167,0.0155,0.0102,0.006,-0.0055,-0.0098,-0.0225,-0.0285,-0.0403,-0.0428,-0.0463,-0.0456,-0.049,-0.0488,-0.0484,-0.0499,-0.0454,-0.0436,-0.044,-0.0449,-0.045,-0.045,-0.045,0,0.0083,0.0113,0.0132,0.0148,0.0172,0.013,0.011,0.0027,0.0031,-0.0098,-0.0067,-0.0229,-0.0238,-0.0287,-0.0341,-0.0369,-0.032,-0.0326,-0.045,-0.0454,-0.0373,-0.0372,-0.0382,-0.0382,-0.0382,-0.0382,-0.0382,0,0.0097,0.0102,0.0123,0.0157,0.0174,0.0131,0.0139,0.0088,0.0069,0.0123,-0.0068,-0.002,-0.0182,-0.0194,-0.0281,-0.0342,-0.0263,-0.0483,-0.0454,-0.0409,-0.0411,-0.0366,-0.0364,-0.0382,-0.0382,-0.0382,-0.0382,0,0.0079,0.0103,0.0148,0.0175,0.0184,0.0179,0.0241,0.0265,0.0218,0.0301,0.0284,0.0194,0.0172,-0.0008,-0.0057,-0.0226,-0.0287,-0.0357,-0.0344,-0.0317,-0.0499,-0.0501,-0.0497,-0.0499,-0.05,-0.0502,-0.0503,0,0.0059,0.0079,0.0186,0.0228,0.0242,0.0265,0.032,0.0336,0.0405,0.0478,0.0544,0.0484,0.0481,0.0304,0.0027,-0.0193,-0.0253,-0.0374,-0.0462,-0.0537,-0.0508,-0.0508,-0.0509,-0.0396,-0.0397,-0.0397,-0.0397,0,0.003,0.0077,0.0144,0.0299,0.0367,0.0458,0.0522,0.0648,0.0705,0.0837,0.0987,0.0986,0.0716,0.0488,0.0062,-0.0096,-0.0337,-0.039,-0.0382,-0.0394,-0.0446,-0.0417,-0.0419,-0.0398,-0.0397,-0.0397,-0.0397,-0.0397,-0.0001,0.0062,0.0202,0.0343,0.046,0.0612,0.073,0.088,0.1103,0.1295,0.1294,0.1318,0.0924,0.0414,0.0089,-0.0314,-0.0327,-0.0491,-0.0488,-0.0485,-0.0493,-0.0546,-0.0521,-0.0521,-0.0522,-0.0522,-0.0523,0,-0.0002,0.0106,0.0229,0.0443,0.0624,0.0654,0.0866,0.1034,0.1371,0.1511,0.1646,0.1326,0.099,0.0562,-0.0024,-0.041,-0.0429,-0.0533,-0.0464,-0.0461,-0.0459,-0.0464,-0.0485,-0.0486,-0.0487,-0.0488,0,0,0.0014,0.0156,0.027,0.0566,0.0701,0.0934,0.1073,0.1365,0.153,0.1733,0.1755,0.1645,0.1116,0.0696,0.0196,-0.0129,-0.0212,-0.0204,-0.0196,-0.0053,-0.0046,-0.0401,-0.0402,0,0,0,0,0]}],[{"header":{"parameterUnit":"m.s-1","parameterCategory":2,"la1":30.2991,"la2":30.254,"lo1":-89.0895,"lo2":-89.0444,"dy":0.0017,"dx":0.0017,"nx":28,"ny":28,"refTime":"2024-06-23T21:00:00:Z","depth":"4","parameterNumber":2,"parameterNumberName":"U-component_of_CURRENTS"},"data":[0,0,0,0,0,0,0,0,0,0,0,0,0,0,0,0,0,0,0,0,0,0,0,0,0,0,0,0,0,0,0,0,0,0,0,0,0,0,0,0,0,0,0,0,0,0,0,0,0,0,0,0,0,0,0,0,0,0,0.1405,0.1407,0,0.153,0.1532,0.1533,0.1609,0.1609,0.1609,0.161,0.1678,0.168,0.1681,0,0,0,0,0,0,0,0,0,0,0,0,0,0.1206,0.1209,0.1405,0.1407,0.1408,0.153,0.1532,0.1534,0.1609,0.1609,0.161,0.161,0.1678,0.168,0.1681,0,0,0,0,0,0,0,0,0,0,0,0,0,0.1307,0.121,0.1405,0.1461,0.1467,0.153,0.1532,0.1534,0.1608,0.1609,0.161,0.161,0.1677,0.1679,0.1682,0.1683,0,0,0.1688,0.1689,0,0,0,0,0,0,0,0,0.1301,0.1314,0.1451,0.1457,0.1464,0.1555,0.1487,0.1581,0.1608,0.1554,0.161,0.1611,0.1632,0.1638,0.166,0.1686,0.1689,0.1688,0.169,0.1691,0.1691,0,0,0,0,0,0,0,0.1294,0.1309,0.1454,0.1453,0.1461,0.1471,0.1486,0.1505,0.1587,0.1559,0.1565,0.1579,0.1635,0.1658,0.1662,0.169,0.1688,0.169,0.1692,0.1693,0.1847,0.185,0,0,0,0,0,0,0.1281,0.1303,0.145,0.1458,0.1383,0.1474,0.1491,0.1525,0.1588,0.1599,0.1579,0.1583,0.1654,0.1659,0.1665,0.1753,0.1691,0.1693,0.1694,0.1844,0.1848,0.1851,0,0,0,0,0,0,0.1277,0.1294,0.1445,0.1382,0.1402,0.1477,0.1514,0.1527,0.159,0.1604,0.1613,0.1633,0.1654,0.1662,0.1716,0.1753,0.1694,0.1696,0.1841,0.1845,0.1849,0.1877,0,0,0,0,0,0,0.1271,0.1292,0.133,0.1382,0.1406,0.15,0.1514,0.1529,0.1596,0.1603,0.1652,0.1657,0.1656,0.1713,0.1718,0.1755,0.1697,0.1837,0.1843,0.1848,0.1872,0.1881,0.1889,0,0,0,0,0,0.1263,0.1305,0.1331,0.135,0.145,0.1501,0.1515,0.1567,0.1598,0.1627,0.1667,0.1658,0.175,0.1716,0.1722,0.176,0.1835,0.1841,0.1848,0.1868,0.1879,0.1889,0,0,0,0,0,0,0.125,0.1318,0.1348,0.1414,0.1462,0.1514,0.1554,0.1591,0.165,0.1666,0.1682,0.169,0.1756,0.1762,0.1724,0.1827,0.1796,0.1804,0.181,0.1821,0.1829,0.1831,0.1699,0,0,0,0,0,0.1261,0.131,0.1368,0.1426,0.145,0.1511,0.1548,0.1583,0.1632,0.1662,0.1699,0.1743,0.1782,0.1804,0.1836,0.1882,0.1908,0.1919,0.1927,0.1934,0.1945,0.2016,0.2031,0.1871,0.1871,0.1871,0,0,0.1273,0.1319,0.135,0.1426,0.1471,0.1511,0.1537,0.1598,0.1643,0.1656,0.1739,0.1774,0.1804,0.186,0.1891,0.187,0.1997,0.1942,0.1947,0.1954,0.2024,0.2039,0.2053,0.1876,0.1875,0.1874,0,0,0.1294,0.1362,0.1396,0.1438,0.1506,0.1539,0.1565,0.1637,0.1682,0.175,0.1782,0.1844,0.19,0.1934,0.1953,0.2032,0.2042,0.2052,0.2088,0.2158,0.2171,0.2182,0.2242,0.2259,0.2051,0.2051,0.2051,0,0.1305,0.1364,0.1415,0.1453,0.1494,0.1555,0.1594,0.1646,0.1731,0.1776,0.1781,0.1917,0.1934,0.2016,0.204,0.2049,0.2089,0.2037,0.2166,0.2178,0.2189,0.2248,0.2266,0.2053,0.2053,0.2053,0.2053,0,0.1339,0.1395,0.1421,0.1489,0.1537,0.1585,0.1648,0.1716,0.1777,0.1827,0.1938,0.198,0.207,0.2081,0.2076,0.2179,0.2182,0.2167,0.2129,0.2207,0.2264,0.2282,0.2056,0.2056,0.2055,0.2054,0,0,0.1327,0.1423,0.1436,0.147,0.1563,0.1599,0.1684,0.177,0.1843,0.1926,0.2026,0.2095,0.2151,0.2181,0.2208,0.2249,0.2353,0.2242,0.2244,0.2283,0.2514,0.2356,0.236,0.2361,0.2364,0.2366,0.2522,0,0.1337,0.14,0.1458,0.1528,0.1559,0.1649,0.1718,0.1809,0.1895,0.2005,0.2082,0.2184,0.2181,0.2241,0.2292,0.2344,0.2403,0.2313,0.245,0.2454,0.2288,0.2376,0.2377,0.2536,0.254,0.2543,0.2545,0,0.1338,0.1381,0.1443,0.154,0.1568,0.1635,0.1771,0.1838,0.1991,0.2071,0.2201,0.2272,0.2394,0.2364,0.2515,0.2462,0.2504,0.2522,0.2528,0.2382,0.2329,0.2445,0.2578,0.2575,0.2573,0.2571,0.2569,0,0.1276,0.137,0.1419,0.1454,0.1571,0.1646,0.1728,0.187,0.1955,0.2138,0.223,0.2381,0.2482,0.2562,0.2632,0.2592,0.2767,0.2719,0.2623,0.2613,0.2692,0.2678,0.2829,0.2829,0.2828,0.2828,0.2827,0,0.1244,0.1286,0.1405,0.1437,0.1515,0.1614,0.1736,0.1845,0.2021,0.213,0.2274,0.2387,0.2535,0.2651,0.2688,0.2721,0.2838,0.265,0.2647,0.2703,0.2688,0.2706,0.2689,0.2834,0.2832,0.2831,0.283,0,0.1156,0.1236,0.1291,0.1431,0.1488,0.1542,0.1747,0.1829,0.2005,0.2163,0.2235,0.2441,0.2588,0.2709,0.2846,0.2782,0.2829,0.2813,0.2891,0.2887,0.2613,0.2598,0.2714,0.271,0.2706,0.2703,0.2701,0,0.1109,0.1128,0.1273,0.131,0.1388,0.1505,0.1593,0.1806,0.1906,0.2172,0.2235,0.2451,0.2572,0.2651,0.277,0.286,0.2823,0.282,0.2681,0.2619,0.2606,0.2595,0.2584,0.2695,0.2694,0.2693,0.2692,0,0.1001,0.1069,0.1122,0.1219,0.1319,0.1403,0.1561,0.1636,0.1871,0.2058,0.2206,0.2308,0.2466,0.257,0.2668,0.2713,0.2797,0.2782,0.2787,0.2657,0.2597,0.2585,0.2579,0.268,0.2682,0.2683,0.2684,0,0.0916,0.093,0.1026,0.1106,0.1201,0.1267,0.1376,0.1525,0.1662,0.1976,0.2024,0.2252,0.2448,0.2498,0.2586,0.2626,0.2574,0.2462,0.2483,0.2498,0.2352,0.2239,0.2228,0,0,0,0,0,0.0809,0.0842,0.0907,0.0984,0.1073,0.115,0.1329,0.1446,0.1701,0.1762,0.1899,0.2047,0.2192,0.23,0.2302,0.2476,0.2566,0.2462,0.2441,0.2612,0.2626,0.2472,0,0,0,0,0,0,0.0736,0.0793,0.0864,0.087,0.0904,0.1004,0.1115,0.1288,0.1343,0.1604,0.1701,0.1898,0.2072,0.2175,0.2252,0.2289,0.2229,0.2616,0.2611,0.2604,0.2617,0.2628,0.2475,0,0,0,0,0]},{"header":{"parameterUnit":"m.s-1","parameterCategory":2,"la1":30.2991,"la2":30.254,"lo1":-89.0895,"lo2":-89.0444,"dy":0.0017,"dx":0.0017,"nx":28,"ny":28,"refTime":"2024-06-23T21:00:00:Z","depth":"4","parameterNumber":3,"parameterNumberName":"V-component_of_CURRENTS"},"data":[0,0,0,0,0,0,0,0,0,0,0,0,0,0,0,0,0,0,0,0,0,0,0,0,0,0,0,0,0,0,0,0,0,0,0,0,0,0,0,0,0,0,0,0,0,0,0,0,0,0,0,0,0,0,0,0,0,0,0.039,0.039,0,0.0337,0.0336,0.0335,0.0311,0.0311,0.0311,0.0311,0.026,0.0259,0.0258,0,0,0,0,0,0,0,0,0,0,0,0,0,0.0419,0.0419,0.0391,0.039,0.0389,0.0337,0.0336,0.0335,0.0311,0.0311,0.0311,0.0311,0.0261,0.0259,0.0257,0,0,0,0,0,0,0,0,0,0,0,0,0,0.0391,0.0419,0.0391,0.037,0.0367,0.0337,0.0336,0.0335,0.0311,0.0311,0.0311,0.0311,0.0261,0.0259,0.0257,0.0246,0,0,0.0251,0.025,0,0,0,0,0,0,0,0,0.0393,0.0391,0.0374,0.0371,0.0368,0.033,0.0327,0.0305,0.0311,0.0333,0.0311,0.0311,0.0283,0.0279,0.0271,0.0243,0.0241,0.0251,0.025,0.0249,0.0248,0,0,0,0,0,0,0,0.0395,0.0392,0.037,0.0373,0.037,0.0345,0.0342,0.0323,0.031,0.0331,0.0329,0.0322,0.0282,0.0273,0.0269,0.024,0.0251,0.0249,0.0248,0.0247,0.02,0.02,0,0,0,0,0,0,0.0403,0.0395,0.0372,0.0368,0.038,0.0345,0.0341,0.0343,0.031,0.0305,0.0322,0.0321,0.0276,0.0272,0.0267,0.0269,0.0249,0.0247,0.0246,0.02,0.02,0.02,0,0,0,0,0,0,0.0404,0.0402,0.0374,0.0379,0.0373,0.0345,0.0347,0.0342,0.0338,0.0303,0.0297,0.0324,0.0276,0.027,0.0257,0.0266,0.0246,0.0244,0.02,0.02,0.02,0.0261,0,0,0,0,0,0,0.0405,0.0403,0.0409,0.038,0.0373,0.0366,0.0347,0.0341,0.0332,0.0331,0.0302,0.0297,0.0275,0.026,0.0255,0.0263,0.0243,0.02,0.02,0.02,0.0259,0.0263,0.0266,0,0,0,0,0,0.0406,0.0413,0.041,0.0407,0.0383,0.0366,0.0361,0.034,0.0333,0.0336,0.0314,0.0298,0.0255,0.0258,0.0252,0.026,0.02,0.02,0.02,0.0257,0.0262,0.0266,0,0,0,0,0,0,0.042,0.041,0.0406,0.0407,0.0394,0.0362,0.0363,0.0346,0.0331,0.0333,0.03,0.0293,0.0285,0.0261,0.0265,0.0244,0.0224,0.0223,0.0269,0.0274,0.0277,0.027,0.0241,0,0,0,0,0,0.0429,0.0435,0.0418,0.0417,0.0419,0.0394,0.0385,0.0372,0.0352,0.0346,0.0324,0.0299,0.0278,0.0268,0.0247,0.0238,0.0173,0.0236,0.024,0.0243,0.0232,0.0126,0.0119,0.02,0.02,0.02,0,0,0.0431,0.0426,0.0428,0.0421,0.0413,0.0417,0.0389,0.0385,0.0384,0.0343,0.034,0.0314,0.0278,0.0268,0.0261,0.0251,0.0191,0.0243,0.0247,0.0233,0.0125,0.0117,0.011,0.02,0.02,0.02,0,0,0.0439,0.0443,0.0455,0.0455,0.0448,0.0435,0.0438,0.0418,0.0411,0.0402,0.0371,0.0344,0.0322,0.0289,0.0271,0.0278,0.0215,0.028,0.0293,0.0192,0.0184,0.0176,0.0103,0.0088,0.0281,0.0281,0.0281,0,0.0444,0.0455,0.0453,0.0467,0.0468,0.0449,0.046,0.0452,0.0426,0.0412,0.0412,0.0346,0.0326,0.0287,0.0296,0.0286,0.0224,0.0285,0.0195,0.0186,0.0177,0.0104,0.0086,0.0284,0.0284,0.0284,0.0283,0,0.0459,0.0476,0.0485,0.0501,0.0503,0.0508,0.0503,0.0497,0.0487,0.0464,0.0429,0.039,0.0342,0.0339,0.0326,0.0259,0.0236,0.0213,0.0185,0.0172,0.0097,0.0077,0.0288,0.0287,0.0286,0.0286,0,0,0.0451,0.0489,0.0493,0.0514,0.0523,0.0527,0.0531,0.0516,0.0509,0.0481,0.0449,0.0415,0.038,0.0355,0.0324,0.0247,0.015,0.0212,0.0205,0.0142,-0.0065,-0.0023,-0.004,0.0105,0.0102,0.0099,-0.0085,0,0.0463,0.0499,0.051,0.0545,0.0566,0.0561,0.0565,0.0551,0.0531,0.0499,0.044,0.0409,0.0391,0.0371,0.029,0.0181,0.0098,0.0202,-0.0046,-0.0053,-0.0014,-0.0062,0.0088,-0.01,-0.0104,-0.0107,-0.011,0,0.0471,0.0498,0.0537,0.0573,0.0582,0.0598,0.0594,0.0598,0.055,0.0532,0.0473,0.0425,0.0329,0.0314,0.0099,0.0164,0.0054,-0.0033,-0.0043,-0.0044,-0.0047,-0.0092,-0.0145,-0.0143,-0.014,-0.0138,-0.0135,0,0.0465,0.0513,0.0547,0.0563,0.06,0.0611,0.0623,0.0601,0.0613,0.0547,0.0534,0.0403,0.0348,0.0175,0.0027,0.0042,-0.0218,-0.0227,-0.0297,-0.0294,-0.0303,-0.0293,-0.0401,-0.0401,-0.04,-0.04,-0.0399,0,0.0467,0.0496,0.0554,0.0577,0.0624,0.0635,0.0666,0.0655,0.0639,0.0649,0.0557,0.052,0.0306,0.0155,-0.0,-0.0199,-0.025,-0.0314,-0.0351,-0.0268,-0.0253,-0.0316,-0.0304,-0.0407,-0.0405,-0.0404,-0.0403,0,0.0462,0.0492,0.0547,0.0602,0.063,0.0666,0.073,0.075,0.0723,0.0727,0.071,0.058,0.0383,0.0177,-0.0107,-0.0213,-0.042,-0.0476,-0.0358,-0.0383,-0.0425,-0.0408,-0.0599,-0.0599,-0.06,-0.06,-0.06,0,0.0465,0.0497,0.0582,0.0632,0.0668,0.0731,0.0783,0.0796,0.0824,0.0771,0.0772,0.0597,0.0491,0.0126,-0.0102,-0.0419,-0.0442,-0.0553,-0.0504,-0.0434,-0.0453,-0.0434,-0.0417,-0.06,-0.06,-0.0601,-0.0601,0,0.0491,0.0523,0.0571,0.067,0.0744,0.0831,0.0898,0.0922,0.093,0.0906,0.082,0.0638,0.0422,0.0142,-0.0095,-0.0317,-0.0491,-0.0556,-0.0557,-0.0513,-0.0438,-0.0452,-0.0434,-0.0602,-0.0601,-0.0601,-0.0601,0,0.052,0.0555,0.0625,0.0709,0.0807,0.0899,0.0933,0.0964,0.0985,0.0928,0.0891,0.0661,0.0516,0.0194,-0.0031,-0.0242,-0.0292,-0.0353,-0.0365,-0.0367,-0.023,-0.0097,-0.0207,0,0,0,0,0,0.0551,0.0586,0.0665,0.0756,0.0852,0.0914,0.1001,0.1025,0.1026,0.0986,0.0944,0.075,0.0417,0.0259,0.0055,-0.0045,-0.0336,-0.0291,-0.0412,-0.0607,-0.0606,-0.0478,0,0,0,0,0,0,0.0571,0.0634,0.066,0.0783,0.0851,0.0968,0.1027,0.1037,0.101,0.0973,0.0798,0.0704,0.0377,0.0533,0.005,-0.0017,-0.0118,-0.0453,-0.0457,-0.0607,-0.0606,-0.0605,-0.0474,0,0,0,0,0]}]]